Skip Page Navigation
NASA JPL Caltech
NASA Logo - Jet Propulsion Laboratory + View the NASA Portal
+ Near-Earth Object (NEO) Program
Search JPL
JPL Home Earth Solar System Stars & Galaxies Technology
JPL Solar System Dynamics
BODIES ORBITS EPHEMERIDES TOOLS PHYSICAL DATA DISCOVERY FAQ SITE MAP
JPL Small-Body Database Browser
Search: [ help ]  
120602 (1995 VZ1)
Classification: Main-belt Asteroid          SPK-ID: 2120602
Ephemeris | Orbit Diagram | Orbital Elements | Physical Parameters | Discovery Circumstances | Close-Approach Data ]

[ show orbit diagram ]
Orbital Elements at Epoch 2457600.5 (2016-Jul-31.0) TDB
Reference: JPL 15 (heliocentric ecliptic J2000)
 Element Value Uncertainty (1-sigma)   Units 
e .1120124219155837 8.8886e-08  
a 2.723370412345851 2.8502e-08 au
q 2.41831909668575 2.4017e-07 au
i 5.893597516201551 7.5716e-06 deg
node 65.62590128763058 7.3188e-05 deg
peri 340.7383481487191 8.0796e-05 deg
M 218.4890617557767 3.3181e-05 deg
tp 2458245.776737320123
(2018-May-07.27673732)
0.0001539 JED
period 1641.566569464301
4.49
2.577e-05
7.055e-08
d
yr
n .2193027116271503 3.4427e-09 deg/d
Q 3.028421728005952 3.1694e-08 au
  Orbit Determination Parameters
   # obs. used (total)      398  
   data-arc span      8022 days (21.96 yr)  
   first obs. used      1993-04-22  
   last obs. used      2015-04-09  
   planetary ephem.      DE431  
   SB-pert. ephem.      SB431-BIG16  
   condition code      0  
   fit RMS      .57092  
   data source      ORB  
   producer      Otto Matic  
   solution date      2015-Jun-04 20:34:11  

Additional Information
 Earth MOID = 1.4275 au 
 Jupiter MOID = 2.33363 au 
 T_jup = 3.341 
[ show covariance matrix ]

Ephemeris | Orbit Diagram | Orbital Elements | Physical Parameters | Discovery Circumstances | Close-Approach Data ]

Physical Parameter Table
Parameter Symbol Value Units Sigma Reference Notes
absolute magnitude H 15.7 mag n/a MPO320374  

120602 (1995 VZ1)          Discovered 1995-Nov-11 by BAO Schmidt CCD Asteroid Program at Xinglong
Reference: 20060314/Numbers.arcLast Updated: 2006-03-23

[ show close-approach data ]
Ephemeris | Orbit Diagram | Orbital Elements | Physical Parameters | Discovery Circumstances | Close-Approach Data ]
ABOUT SSD CREDITS/AWARDS PRIVACY/COPYRIGHT GLOSSARY LINKS
FirstGov 2016-Apr-28 23:53 UT
(server date/time)  
NASA Home Page
Site Manager:   Ryan S. Park
Webmaster  Alan B. Chamberlin